YB2NDX-15 Weather Reports


time (UTC)temp
C
wind
direction
speed
KPH
gust
KPH
rain 1hr
cm
rain 24hr
cm
rain mn
cm
humidity
%
barometer
mb
20260506124208 29 0.0 0.0 0.00 0.00 0.00 1007.8
20260506123159 29 0.0 0.0 0.00 0.00 0.00 1007.6
20260506122152 30 0.0 0.0 0.00 0.00 0.00 1007.4
20260506121145 30 0.0 0.0 0.00 0.00 0.00 1007.3
20260506120139 30 0.0 0.0 0.00 0.00 0.00 1007.0
20260506115132 30 0.0 0.0 0.00 0.00 0.00 1006.9
20260506114126 30 0.0 0.0 0.00 0.00 0.00 1006.7
20260506113120 30 0.0 0.0 0.00 0.00 0.00 1006.5
20260506112113 31 0.0 0.0 0.00 0.00 0.00 1006.4
20260506111106 31 0.0 0.0 0.00 0.00 0.00 1006.3
20260506110100 31 0.0 0.0 0.00 0.00 0.00 1006.2
20260506105053 31 0.0 0.0 0.00 0.00 0.00 1006.1
20260506104047 32 0.0 0.0 0.00 0.00 0.00 1005.9
20260506102034 32 0.0 0.0 0.00 0.00 0.00 1005.6
20260506101028 32 0.0 0.0 0.00 0.00 0.00 1005.5
20260506100022 32 0.0 0.0 0.00 0.00 0.00 1005.5
20260506094009 33 0.0 0.0 0.00 0.00 0.00 1005.4
20260506093002 34 0.0 0.0 0.00 0.00 0.00 1005.2
20260506091955 34 0.0 0.0 0.00 0.00 0.00 1005.1
20260506090948 35 0.0 0.0 0.00 0.00 0.00 1005.2
20260506083929 36 0.0 0.0 0.00 0.00 0.00 1005.1
20260506082922 39 0.0 0.0 0.00 0.00 0.00 1005.2
20260506081915 47 0.0 0.0 0.00 0.00 0.00 1006.0
20260506080909 46 0.0 0.0 0.00 0.00 0.00 1006.8
20260506072843 36 0.0 0.0 0.00 0.00 0.00 1005.4
20260506071837 36 0.0 0.0 0.00 0.00 0.00 1005.4
20260506070832 36 0.0 0.0 0.00 0.00 0.00 1005.6
20260506061758 36 0.0 0.0 0.00 0.00 0.00 1006.3
20260506060751 36 0.0 0.0 0.00 0.00 0.00 1006.4
20260506050713 36 0.0 0.0 0.00 0.00 0.00 1007.1
20260506044700 35 0.0 0.0 0.00 0.00 0.00 1007.5
20260506043654 35 0.0 0.0 0.00 0.00 0.00 1007.6
20260506042648 35 0.0 0.0 0.00 0.00 0.00 1007.7
20260506041641 35 0.0 0.0 0.00 0.00 0.00 1007.8
20260506040635 35 0.0 0.0 0.00 0.00 0.00 1008.1
20260506035629 34 0.0 0.0 0.00 0.00 0.00 1008.2
20260506033613 33 0.0 0.0 0.00 0.00 0.00 1008.6
20260506032606 33 0.0 0.0 0.00 0.00 0.00 1008.8
20260506031600 33 0.0 0.0 0.00 0.00 0.00 1009.0
20260506030553 33 0.0 0.0 0.00 0.00 0.00 1009.1
20260506024541 32 0.0 0.0 0.00 0.00 0.00 1009.2
20260506023534 32 0.0 0.0 0.00 0.00 0.00 1009.3
20260506021521 32 0.0 0.0 0.00 0.00 0.00 1009.4
20260506020515 31 0.0 0.0 0.00 0.00 0.00 1009.4
20260506013456 31 0.0 0.0 0.00 0.00 0.00 1009.5
20260506012450 30 0.0 0.0 0.00 0.00 0.00 1009.5
20260506011444 30 0.0 0.0 0.00 0.00 0.00 1009.5
20260506010438 30 0.0 0.0 0.00 0.00 0.00 1009.4
20260506005431 30 0.0 0.0 0.00 0.00 0.00 1009.5
20260506004424 29 0.0 0.0 0.00 0.00 0.00 1009.4
20260506003418 29 0.0 0.0 0.00 0.00 0.00 1009.4
20260506002412 28 0.0 0.0 0.00 0.00 0.00 1009.3
20260506001406 28 0.0 0.0 0.00 0.00 0.00 1009.3
20260506000401 28 0.0 0.0 0.00 0.00 0.00 1009.1
20260505235353 28 0.0 0.0 0.00 0.00 0.00 1008.9
20260505234347 27 0.0 0.0 0.00 0.00 0.00 1008.8
20260505233340 27 0.0 0.0 0.00 0.00 0.00 1008.8
20260505232334 27 0.0 0.0 0.00 0.00 0.00 1008.7
20260505231327 27 0.0 0.0 0.00 0.00 0.00 1008.6
20260505230320 27 0.0 0.0 0.00 0.00 0.00 1008.5
20260505225314 26 0.0 0.0 0.00 0.00 0.00 1008.4
20260505223301 26 0.0 0.0 0.00 0.00 0.00 1008.4
20260505222254 26 0.0 0.0 0.00 0.00 0.00 1008.3
20260505221248 26 0.0 0.0 0.00 0.00 0.00 1008.3
20260505215235 26 0.0 0.0 0.00 0.00 0.00 1008.0
20260505213222 26 0.0 0.0 0.00 0.00 0.00 1007.9
20260505212216 26 0.0 0.0 0.00 0.00 0.00 1007.9
20260505211210 26 0.0 0.0 0.00 0.00 0.00 1008.0
20260505210203 26 0.0 0.0 0.00 0.00 0.00 1007.9
20260505205156 26 0.0 0.0 0.00 0.00 0.00 1007.9
20260505204150 26 0.0 0.0 0.00 0.00 0.00 1007.8
20260505203143 26 0.0 0.0 0.00 0.00 0.00 1007.8
20260505202137 26 0.0 0.0 0.00 0.00 0.00 1007.9
20260505201130 26 0.0 0.0 0.00 0.00 0.00 1007.9
20260505200124 26 0.0 0.0 0.00 0.00 0.00 1007.9
20260505195117 26 0.0 0.0 0.00 0.00 0.00 1007.9
20260505194111 26 0.0 0.0 0.00 0.00 0.00 1008.0
20260505192059 26 0.0 0.0 0.00 0.00 0.00 1008.2
20260505191053 26 0.0 0.0 0.00 0.00 0.00 1008.3
20260505190046 26 0.0 0.0 0.00 0.00 0.00 1008.2
20260505185039 26 0.0 0.0 0.00 0.00 0.00 1008.2
20260505184034 26 0.0 0.0 0.00 0.00 0.00 1008.4
20260505183027 27 0.0 0.0 0.00 0.00 0.00 1008.4
20260505182020 27 0.0 0.0 0.00 0.00 0.00 1008.6
20260505180008 27 0.0 0.0 0.00 0.00 0.00 1008.8
20260505175000 27 0.0 0.0 0.00 0.00 0.00 1009.0
20260505173954 27 0.0 0.0 0.00 0.00 0.00 1008.9
20260505172947 27 0.0 0.0 0.00 0.00 0.00 1008.9
20260505171941 27 0.0 0.0 0.00 0.00 0.00 1009.1
20260505170934 27 0.0 0.0 0.00 0.00 0.00 1009.3
20260505165928 28 0.0 0.0 0.00 0.00 0.00 1009.3
20260505164922 27 0.0 0.0 0.00 0.00 0.00 1009.5
20260505163916 28 0.0 0.0 0.00 0.00 0.00 1009.6
20260505162910 28 0.0 0.0 0.00 0.00 0.00 1009.6
20260505161903 28 0.0 0.0 0.00 0.00 0.00 1009.7
20260505160857 28 0.0 0.0 0.00 0.00 0.00 1009.6
20260505152831 28 0.0 0.0 0.00 0.00 0.00 1009.4
20260505151825 28 0.0 0.0 0.00 0.00 0.00 1009.2
20260505150818 28 0.0 0.0 0.00 0.00 0.00 1009.2